Page, AZ

9:46 AM MDT on June 24, 2018 (GMT -0600)
Page Municipal

Weather History for KPGA - June, 2018

Change the Weather History Date:

Thursday, June 14, 2018

  Actual Average Record
Temperature  
Mean Temperature 88 °F -  
Max Temperature 100 °F 89 °F 102 °F (1974)
Min Temperature 75 °F 61 °F 48 °F (2001)
Cooling Degree Days 22    
Growing Degree Days 38 (Base 50)    
Moisture  
Dew Point 32 °F    
Average Humidity 13    
Maximum Humidity 19    
Minimum Humidity 5    
Precipitation  
Precipitation 0.00 in - - ()
Sea Level Pressure  
Sea Level Pressure 29.66 in    
Wind  
Wind Speed 8 mph (SW)    
Max Wind Speed 16 mph    
Max Gust Speed 30 mph    
Visibility 10 miles    
Events      
Averages and records for this station are not official NWS values.
T = Trace of Precipitation, MM = Missing Value Source: NWS Daily Summary

Daily Weather History Graph

Daily Weather History Graph

Search for Another Location

Airport or City:

Astronomy

Jun. 14, 2018 Rise Set
Actual Time 5:05 AM MST 7:46 PM MST
Civil Twilight 4:35 AM MST 8:17 PM MST
Nautical Twilight 3:56 AM MST 8:55 PM MST
Astronomical Twilight 3:13 AM MST 9:38 PM MST
Moon 6:05 AM MST (6/14) 8:52 PM MST (6/14)
Length of Visible Light 15h 42m
Length of Day
14h 40m
New Moon, 1% of the Moon is Illuminated
Jun 14
New Moon
Jun 20
First Quarter
Jun 27
Full
Jul 6
Last Quarter
Jul 12
New

Hourly Weather History & Observations

Time (MST) Temp. Dew Point Humidity Pressure Visibility Wind Dir Wind Speed Gust Speed Precip Events Conditions
12:53 AM 81.0 °F 12.0 °F 7% 29.68 in 10.0 mi SSW 5.8 mph - N/A   Clear
1:53 AM 81.0 °F 21.0 °F 11% 29.67 in 10.0 mi SW 3.5 mph - N/A   Clear
2:53 AM 79.0 °F 30.0 °F 17% 29.68 in 10.0 mi SSW 5.8 mph - N/A   Clear
3:53 AM 79.0 °F 32.0 °F 18% 29.68 in 10.0 mi South 4.6 mph - N/A   Clear
4:53 AM 78.1 °F 32.0 °F 19% 29.70 in 10.0 mi South 6.9 mph - N/A   Clear
5:53 AM 80.1 °F 30.9 °F 17% 29.71 in 10.0 mi South 9.2 mph - N/A   Clear
6:53 AM 81.0 °F 30.9 °F 16% 29.72 in 10.0 mi SSW 8.1 mph - N/A   Clear
7:53 AM 82.9 °F 34.0 °F 17% 29.73 in 10.0 mi West 3.5 mph - N/A   Clear
8:53 AM 84.9 °F 32.0 °F 15% 29.74 in 10.0 mi West 6.9 mph - N/A   Clear
9:53 AM 90.0 °F 30.9 °F 12% 29.72 in 10.0 mi SW 8.1 mph - N/A   Clear
10:53 AM 91.9 °F 32.0 °F 12% 29.70 in 10.0 mi SSW 10.4 mph 21.9 mph N/A   Clear
11:53 AM 93.9 °F 35.1 °F 13% 29.68 in 10.0 mi SSW 8.1 mph 17.3 mph N/A   Clear
12:53 PM 97.0 °F 33.1 °F 11% 29.65 in 10.0 mi West 9.2 mph 18.4 mph N/A   Clear
1:53 PM 98.1 °F 32.0 °F 10% 29.61 in 10.0 mi SW 8.1 mph 21.9 mph N/A   Clear
2:53 PM 95.0 °F 34.0 °F 12% 29.60 in 10.0 mi WSW 12.7 mph 23.0 mph N/A   Clear
3:37 PM 93.0 °F 35.1 °F 13% 29.85 in 10.0 mi SW 16.1 mph 26.5 mph N/A   Clear
3:53 PM 91.0 °F 37.0 °F 15% 29.64 in 10.0 mi West 13.8 mph 29.9 mph N/A   Clear
4:53 PM 91.9 °F 30.9 °F 11% 29.62 in 10.0 mi SW 12.7 mph 26.5 mph N/A   Clear
5:53 PM 91.0 °F 33.1 °F 13% 29.60 in 10.0 mi SW 11.5 mph 18.4 mph N/A   Partly Cloudy
6:53 PM 93.0 °F 33.1 °F 12% 29.57 in 10.0 mi South 9.2 mph - N/A   Clear
7:53 PM 90.0 °F 36.0 °F 15% 29.58 in 10.0 mi South 12.7 mph 19.6 mph N/A   Clear
8:53 PM 88.0 °F 34.0 °F 15% 29.60 in 10.0 mi South 6.9 mph - N/A   Clear
9:53 PM 84.9 °F 33.1 °F 16% 29.62 in 10.0 mi SSW 8.1 mph - N/A   Clear
10:53 PM 84.9 °F 33.1 °F 16% 29.62 in 10.0 mi SW 5.8 mph - N/A   Clear
11:53 PM 84.9 °F 33.1 °F 16% 29.61 in 10.0 mi SW 8.1 mph - N/A   Clear